Bedford, Massachusetts, United States (01730)
Lat: 42.49N, Lon: 71.28W
Wx Zone: MAZ005
Local Info
Past Weather Observations for Saturday, February 28, 2015

NOTE: This archive is for the closest National Weather Service station to Bedford. Information may differ from the station used for current weather conditions.

Click here for Long-term Archive

Time Weather Temperature Dewpoint Humidity Pressure Winds Precip Visibility
23:56
Clear
10°F / -12°C °F / -18°C 61% 30.69 in
(1039 mb)
SSW 4.6 mph
(SSW 7 kph)
- 10SM
22:56
Clear
10°F / -12°C °F / -18°C 61% 30.69 in
(1039 mb)
Calm - 10SM
21:56
Clear
18°F / -8°C °F / -18°C 45% 30.69 in
(1039 mb)
SSW 5.8 mph
(SSW 9 kph)
- 10SM
20:56
Clear
19°F / -7°C °F / -18°C 42% 30.69 in
(1039 mb)
SSW 4.6 mph
(SSW 7 kph)
- 10SM
19:56
Clear
18°F / -8°C °F / -18°C 45% 30.69 in
(1039 mb)
Calm - 10SM
17:56
Clear
27°F / -3°C -2°F / -19°C 28% 30.66 in
(1038 mb)
S 4.6 mph
(S 7 kph)
- 10SM
16:56
Clear
28°F / -2°C -2°F / -19°C 26% 30.66 in
(1038 mb)
SSW 5.8 mph
(SSW 9 kph)
0.00 in
(0.00 mm)
10SM
15:56
Clear
Unknown Precip
28°F / -2°C -2°F / -19°C 26% 30.66 in
(1038 mb)
SSW 6.9 mph
(SSW 11 kph)
0.00 in
(0.00 mm)
10SM
14:56
Clear
Unknown Precip
28°F / -2°C -2°F / -19°C 26% 30.66 in
(1038 mb)
SSW 6.9 mph
(SSW 11 kph)
0.00 in
(0.00 mm)
10SM
13:56
Clear
27°F / -3°C -2°F / -19°C 28% 30.69 in
(1039 mb)
Variable 3.5 mph
(Variable 6 kph)
0.00 in
(0.00 mm)
10SM
12:56
Clear
25°F / -4°C -2°F / -19°C 30% 30.71 in
(1040 mb)
Calm - 10SM
11:56
Clear
21°F / -6°C -2°F / -19°C 35% 30.71 in
(1040 mb)
S 4.6 mph
(S 7 kph)
- 10SM
10:56
Clear
21°F / -6°C -2°F / -19°C 35% 30.74 in
(1041 mb)
NW 4.6 mph
(NW 7 kph)
0.00 in
(0.00 mm)
10SM
09:56
Clear
Unknown Precip
19°F / -7°C -2°F / -19°C 38% 30.74 in
(1041 mb)
NNW 8.1 mph
(NNW 13 kph)
0.00 in
(0.00 mm)
10SM
08:56
Clear
14°F / -10°C -2°F / -19°C 48% 30.74 in
(1041 mb)
WNW 9.2 mph
(WNW 15 kph)
- 10SM
07:56
Clear
9°F / -13°C -4°F / -20°C 56% 30.71 in
(1040 mb)
W 5.8 mph
(W 9 kph)
- 10SM
06:56
Clear
1°F / -17°C -6°F / -21°C 71% 30.69 in
(1039 mb)
SSW 8.1 mph
(SSW 13 kph)
- 10SM
05:56
Clear
-4°F / -20°C -9°F / -23°C 77% 30.69 in
(1039 mb)
W 4.6 mph
(W 7 kph)
- 10SM
04:56
Clear
°F / -18°C -6°F / -21°C 78% 30.63 in
(1037 mb)
Calm - 10SM
03:56
Clear
1°F / -17°C -8°F / -22°C 65% 30.63 in
(1037 mb)
Calm - 10SM
02:56
Clear
7°F / -14°C -4°F / -20°C 61% 30.6 in
(1036 mb)
SSW 4.6 mph
(SSW 7 kph)
- 10SM
01:56
Clear
7°F / -14°C -2°F / -19°C 66% 30.6 in
(1036 mb)
W 5.8 mph
(W 9 kph)
- 10SM
00:56
Clear
1°F / -17°C -8°F / -22°C 65% 30.57 in
(1035 mb)
Calm - 10SM
Time Weather Temperature Dewpoint Humidity Pressure Winds Precip Visibility


Weather for websites

WeatherForYou.com, LLC is not responsible for any damages or problems caused by this service. Current weather conditions are obtained from the closest station including government and personal stations which may have varying degrees of accuracy. Weather forecasts are derived from the NOAA NDFD. Like all things, this site belongs to Jesus Christ... He just trusts me to maintain it. If you have any questions or comments email webmaster@weatherforyou.com

Copyright © 2015, WeatherForYou.com LLC. All rights reserved.